Regional Weather Roundup
Issued by NWS Mobile, AL

Home | Current Version | Previous Version | Text Only | Print | Product List | Glossary On
Versions: 1 2 3 4 5 6 7 8 9 10 11 12 13 14 15 16 17 18 19 20 21 22 23 24 25 26 27 28 29 30 31 32 33 34 35 36 37 38 39 40 41 42 43 44 45 46 47 48 49 50
000
ASUS44 KMOB 231210
RWRMOB
REGIONAL WEATHER ROUNDUP
NATIONAL WEATHER SERVICE MOBILE AL
700 AM CDT WED JUL 23 2014

NOTE: "FAIR" INDICATES FEW OR NO CLOUDS BELOW 12,000 FEET WITH NO
      SIGNIFICANT WEATHER AND/OR OBSTRUCTIONS TO VISIBILITY.

  * THESE STATIONS ARE PART OF THE UNIVERSITY OF SOUTH ALABAMA
    MESONET AND ARE NOT UNDER NWS OR FAA QUALITY CONTROL.

ALZ061>064-231300-
COASTAL ALABAMA

CITY           SKY/WX    TMP DP  RH WIND       PRES   REMARKS
MOBILE REG APT MOSUNNY   70  70 100 NE3       30.07R FOG
6HR MIN TEMP:  70; 6HR MAX TEMP:  71;

BROOKLEY FIELD MOSUNNY   72  71  97 N5        30.08R FOG
6HR MIN TEMP:  70; 6HR MAX TEMP:  73;

USA CAMPUS*      N/A     70  70 100 CALM      30.07R
DOG RIVER*       N/A     72  72 100 N3        30.07R


CITY           SKY/WX    TMP DP  RH WIND       PRES   REMARKS
MOUNT VERNON*    N/A     66  66 100 CALM      30.08R
SARALAND*      NOT AVBL
BAY MINETTE*   NOT AVBL
LOXLEY*          N/A    N/A N/A N/A CALM      30.07R
ROBERTSDALE*     N/A    N/A N/A N/A CALM      30.07R
FAIRHOPE*        N/A     70  70 100 NE2       30.06R
ELBERTA*         N/A     72  59  64 N2        30.05R
FOLEY*         NOT AVBL
GRAND BAY*       N/A     70  70 100 CALM      30.04R
DAUPHIN ISLND* NOT AVBL
BON SCOUR NWR* NOT AVBL
GULF SHORES    SUNNY     72  71  99 CALM      30.05R FOG

$$

ALZ051>060-231300-
INTERIOR SOUTHWEST AND SOUTH CENTRAL ALABAMA

CITY           SKY/WX    TMP DP  RH WIND       PRES   REMARKS
GREENVILLE     SUNNY     71  68  90 CALM      30.08R
6HR MIN TEMP:  69; 6HR MAX TEMP:  72;

EVERGREEN      CLOUDY    73  70  90 CALM      30.09R
6HR MIN TEMP:  71; 6HR MAX TEMP:  74;

CASTLEBERRY*   NOT AVBL
ATMORE*          N/A     70  70 100 CALM      30.09R
DIXIE*         NOT AVBL
ANDALUSIA/OPP  MOSUNNY   77  72  84 CALM      30.08R
6HR MIN TEMP:  74; 6HR MAX TEMP:  77;

ANDALUSIA*     NOT AVBL
FLORALA APT    CLOUDY    73  70  88 CALM      30.10R
6HR MIN TEMP:  71; 6HR MAX TEMP:  75;

FLORALA*         N/A     72  70  94 CALM      30.05R

$$

FLZ001>006-231300-
WESTERN FLORIDA PANHANDLE

CITY           SKY/WX    TMP DP  RH WIND       PRES   REMARKS
PENSACOLA      MOSUNNY   75  74  96 CALM      30.06R
6HR MIN TEMP:  73; 6HR MAX TEMP:  77;

NAS PENSACOLA  PTSUNNY   73  72  96 CALM      30.05R
6HR MIN TEMP:  70; 6HR MAX TEMP:  75;

MILTON         FOG       73  71  93 CALM      30.06R VSB<1/4
6HR MIN TEMP:  70; 6HR MAX TEMP:  73;

WHTNG S FIELD  CLOUDY    73  71  93 CALM      30.06R FOG
6HR MIN TEMP:  71; 6HR MAX TEMP:  76;



CITY           SKY/WX    TMP DP  RH WIND       PRES   REMARKS
WALNUT HILL*   NOT AVBL
JAY*           NOT AVBL
DUKE FIELD     SUNNY     72  72 100 SE2       30.06
CRESTVIEW      MOSUNNY   71  70  96 NE5       30.08R FOG
6HR MIN TEMP:  69; 6HR MAX TEMP:  72;

VALPARAISO     MOSUNNY   74  73  94 N1        30.05R
6HR MIN TEMP:  73; 6HR MAX TEMP:  79;

DESTIN         PTSUNNY   82  75  79 CALM      30.06R
6HR MIN TEMP:  77; 6HR MAX TEMP:  82;


$$

MSZ076-079-231300-
INTERIOR SOUTHEAST MISSISSIPPI

CITY           SKY/WX    TMP DP  RH WIND       PRES   REMARKS
LEAKESVILLE*     N/A     68  66  94 CALM        N/A
AGRICOLA*      NOT AVBL

$$

MARINE OBSERVATIONS

STATION/POSITION TIME  TEMP    WIND        PRES    WAVE
                       AIR SEA DIR/SP/G            HT/PER
                 (UTC) (F)     (DEG/KT/KT) (MB)    (FT/S)
PASCAGOULA       1200   74     360/  5/  6 1017.3R
PETIT BOIS ISLND 1200   79     110/  4/  6 1017.6R
GRAND BAY        1100   73      10/  4     1018.0S
KATRINA CUT      1100   80     120/  5     1017.6R
CEDAR POINT      1100   79     140/  4     1016.9F
E DAUPHIN ISLAND 1200   80     100/  4/  4 1017.5R
MIDDLE BAY LIGHT 1100   78      90/  6     1016.9S
USCG MOBILE BAY  1200   72 83  350/  4/  6 1017.1R
STATE DOCKS      1200   72 83              1018.0R
MEAHER PARK      1100   73     360/  3     1018.0R
WEEKS BAY        1100   64                   N/A
FORT MORGAN      1200   80     140/  3/  4 1017.3
12 S ORANGE BCH  1200   81 82  160/  6/  6 1017.5R   1/ 4
PENSACOLA BAY    1200   79 83   30/  4/  5 1017.9R
64 S DAUPHIN ISL 1146   80 84  170/ 14/ 17 1017.2R
67 S FORT MORGAN 1100   81                 1016.9R

$$

SELECTED LOCATIONS ACROSS THE REGION

CITY           SKY/WX    TMP DP  RH WIND       PRES   REMARKS
NEW ORLEANS    MOCLDY    77  74  90 CALM      30.03S
GULFPORT       CLEAR     73  68  84 NE3       30.04R
PASCAGOULA AP  CLEAR     71  69  93 N3        30.06R
PASCAGOULA*      N/A     73  73 100 N2        30.05R
HATTIESBURG    FOG       68  68 100 CALM      30.08R VSB 1/4
LAUREL         CLOUDY    66  64  94 CALM      30.09R VSB<1/4
MERIDIAN       FOG       68  68 100 CALM      30.08R VSB 1/2
JACKSON        MOCLDY    73  71  93 CALM      30.08R
MONTGOMERY     SUNNY     74  71  91 CALM      30.09R
TROY           MOSUNNY   72  70  93 CALM      30.10R
KINSTON*       NOT AVBL
GENEVA*          N/A     70  68  94 CALM      30.10R
ASHFORD*       NOT AVBL
DOTHAN         SUNNY     72  71  97 CALM      30.12R
PANAMA CITY    MOSUNNY   75  72  90 E3        30.06R

$$



USA.gov is the U.S. government's official web portal to all federal, state and local government web resources and services.